TimeCST,TemperatureF,Dew PointF,Humidity,Sea Level PressureIn,VisibilityMPH,Wind Direction,Wind SpeedMPH,Gust SpeedMPH,PrecipitationIn,Events,Conditions,WindDirDegrees,DateUTC
12:15 AM,43.0,24.3,48,30.13,10.0,South,3.5,-,N/A,,Clear,170,2014-01-01 06:15:00
12:35 AM,42.6,24.1,48,30.12,10.0,South,9.2,-,N/A,,Clear,170,2014-01-01 06:35:00
12:55 AM,42.8,23.9,47,30.11,10.0,Calm,Calm,-,N/A,,Clear,0,2014-01-01 06:55:00
1:15 AM,42.4,24.3,49,30.10,10.0,South,8.1,-,N/A,,Clear,170,2014-01-01 07:15:00
1:35 AM,41.9,24.3,50,30.10,10.0,Calm,Calm,-,N/A,,Clear,0,2014-01-01 07:35:00
1:55 AM,42.1,23.9,49,30.09,10.0,Calm,Calm,-,N/A,,Clear,0,2014-01-01 07:55:00
2:15 AM,42.1,23.9,49,30.09,10.0,South,8.1,16.1,N/A,,Clear,170,2014-01-01 08:15:00
2:35 AM,41.5,23.9,50,30.08,10.0,South,6.9,-,N/A,,Clear,170,2014-01-01 08:35:00
2:55 AM,40.6,24.1,52,30.07,10.0,SSE,3.5,-,N/A,,Clear,160,2014-01-01 08:55:00
3:15 AM,38.3,24.4,57,30.07,10.0,Calm,Calm,-,N/A,,Clear,0,2014-01-01 09:15:00
3:35 AM,38.5,24.6,58,30.06,10.0,Calm,Calm,-,N/A,,Clear,0,2014-01-01 09:35:00
3:55 AM,39.2,24.6,56,30.04,10.0,Calm,Calm,-,N/A,,Clear,0,2014-01-01 09:55:00
4:15 AM,38.7,24.8,58,30.03,10.0,Calm,Calm,-,N/A,,Clear,0,2014-01-01 10:15:00
4:35 AM,37.8,25.2,60,30.02,10.0,Calm,Calm,-,N/A,,Clear,0,2014-01-01 10:35:00
4:55 AM,37.2,25.3,62,30.02,10.0,Calm,Calm,-,N/A,,Clear,0,2014-01-01 10:55:00
5:15 AM,36.7,25.3,64,30.02,10.0,Calm,Calm,-,N/A,,Clear,0,2014-01-01 11:15:00
5:35 AM,36.5,25.7,65,30.01,10.0,Calm,Calm,-,N/A,,Clear,0,2014-01-01 11:35:00
5:55 AM,36.5,25.7,65,30.00,10.0,Calm,Calm,-,N/A,,Clear,0,2014-01-01 11:55:00
6:15 AM,36.1,25.7,66,30.00,10.0,Calm,Calm,-,N/A,,Clear,0,2014-01-01 12:15:00
6:35 AM,36.1,26.2,67,29.99,10.0,Calm,Calm,-,N/A,,Clear,0,2014-01-01 12:35:00
6:55 AM,36.5,26.4,67,29.99,10.0,Calm,Calm,-,N/A,,Clear,0,2014-01-01 12:55:00
7:15 AM,36.5,26.6,67,29.99,10.0,Calm,Calm,-,N/A,,Clear,0,2014-01-01 13:15:00
7:35 AM,36.5,26.6,67,29.99,10.0,Calm,Calm,-,N/A,,Clear,0,2014-01-01 13:35:00
7:55 AM,36.5,27.0,68,29.99,10.0,Calm,Calm,-,N/A,,Clear,0,2014-01-01 13:55:00
8:15 AM,36.9,27.3,68,29.99,10.0,Calm,Calm,-,N/A,,Clear,0,2014-01-01 14:15:00
8:35 AM,37.4,27.7,68,29.99,10.0,Calm,Calm,-,N/A,,Clear,0,2014-01-01 14:35:00
8:55 AM,38.7,28.0,66,29.99,10.0,Calm,Calm,-,N/A,,Clear,0,2014-01-01 14:55:00
9:15 AM,40.3,28.4,63,29.99,10.0,Calm,Calm,-,N/A,,Clear,0,2014-01-01 15:15:00
9:35 AM,41.4,28.8,61,30.00,10.0,Calm,Calm,-,N/A,,Clear,0,2014-01-01 15:35:00
9:55 AM,42.4,28.9,59,29.99,10.0,South,9.2,16.1,N/A,,Clear,170,2014-01-01 15:55:00
10:15 AM,44.2,29.1,55,29.99,10.0,South,10.4,16.1,N/A,,Clear,170,2014-01-01 16:15:00
10:35 AM,45.7,29.3,53,29.99,10.0,Calm,Calm,-,N/A,,Clear,0,2014-01-01 16:35:00
10:55 AM,47.3,29.8,51,29.98,10.0,Calm,Calm,-,N/A,,Clear,0,2014-01-01 16:55:00
11:15 AM,48.6,29.8,48,29.96,10.0,Calm,Calm,-,N/A,,Clear,0,2014-01-01 17:15:00
11:35 AM,49.5,30.0,47,29.95,10.0,Calm,Calm,-,N/A,,Clear,0,2014-01-01 17:35:00
11:55 AM,49.3,30.2,48,29.93,10.0,Calm,Calm,-,N/A,,Clear,0,2014-01-01 17:55:00
12:15 PM,50.4,30.9,47,29.92,10.0,Calm,Calm,-,N/A,,Clear,0,2014-01-01 18:15:00
12:35 PM,52.5,30.9,44,29.92,10.0,Calm,Calm,-,N/A,,Clear,0,2014-01-01 18:35:00
12:55 PM,52.2,30.9,44,29.91,10.0,Calm,Calm,-,N/A,,Clear,0,2014-01-01 18:55:00
1:15 PM,52.9,32.0,45,29.90,10.0,Calm,Calm,-,N/A,,Clear,0,2014-01-01 19:15:00
1:35 PM,52.7,31.8,45,29.89,10.0,Calm,Calm,-,N/A,,Clear,0,2014-01-01 19:35:00
1:55 PM,52.7,32.0,45,29.89,10.0,Calm,Calm,-,N/A,,Clear,0,2014-01-01 19:55:00
2:15 PM,52.2,32.0,46,29.89,10.0,Calm,Calm,-,N/A,,Clear,0,2014-01-01 20:15:00
2:35 PM,52.3,32.0,46,29.90,10.0,Calm,Calm,-,N/A,,Clear,0,2014-01-01 20:35:00
2:55 PM,52.2,32.0,46,29.91,10.0,Calm,Calm,-,N/A,,Clear,0,2014-01-01 20:55:00
3:15 PM,52.2,32.0,46,29.92,10.0,Calm,Calm,-,N/A,,Scattered Clouds,0,2014-01-01 21:15:00
3:35 PM,51.8,32.0,47,29.93,10.0,Calm,Calm,-,N/A,,Scattered Clouds,0,2014-01-01 21:35:00
3:55 PM,51.6,32.0,47,29.94,10.0,Calm,Calm,-,N/A,,Mostly Cloudy,0,2014-01-01 21:55:00
4:15 PM,51.1,32.0,48,29.95,10.0,Calm,Calm,-,N/A,,Overcast,0,2014-01-01 22:15:00
4:35 PM,50.0,31.1,48,29.96,10.0,Calm,Calm,-,N/A,,Overcast,0,2014-01-01 22:35:00
4:55 PM,49.6,31.1,49,29.97,10.0,Calm,Calm,-,N/A,,Overcast,0,2014-01-01 22:55:00
5:15 PM,49.3,31.1,50,29.98,10.0,Calm,Calm,-,N/A,,Overcast,0,2014-01-01 23:15:00
5:35 PM,47.8,30.2,50,29.99,10.0,NNW,10.4,18.4,N/A,,Overcast,340,2014-01-01 23:35:00
5:55 PM,43.0,27.5,54,30.02,10.0,North,10.4,21.9,N/A,,Overcast,350,2014-01-01 23:55:00
6:15 PM,38.3,24.3,57,30.06,10.0,NNW,16.1,29.9,N/A,,Overcast,330,2014-01-02 00:15:00
6:35 PM,35.6,22.6,59,30.09,10.0,North,12.7,23.0,N/A,,Overcast,350,2014-01-02 00:35:00
6:55 PM,34.0,21.2,60,30.09,10.0,NNW,16.1,21.9,N/A,,Overcast,340,2014-01-02 00:55:00
7:15 PM,33.1,20.1,59,30.11,10.0,North,15.0,24.2,N/A,,Overcast,360,2014-01-02 01:15:00
7:35 PM,32.0,19.4,60,30.12,10.0,NNW,13.8,21.9,N/A,,Overcast,340,2014-01-02 01:35:00
7:55 PM,31.6,18.9,59,30.15,10.0,NNW,10.4,17.3,N/A,,Overcast,330,2014-01-02 01:55:00
8:15 PM,30.9,18.1,59,30.17,10.0,NW,15.0,21.9,N/A,,Overcast,320,2014-01-02 02:15:00
8:35 PM,29.3,16.7,59,30.19,10.0,NW,12.7,19.6,N/A,,Overcast,320,2014-01-02 02:35:00
8:55 PM,28.4,16.5,61,30.20,10.0,NNW,12.7,20.7,N/A,,Overcast,340,2014-01-02 02:55:00
9:15 PM,27.3,17.1,65,30.21,7.0,North,6.9,18.4,N/A,Snow,Light Snow,350,2014-01-02 03:15:00
9:35 PM,25.9,16.7,68,30.22,5.0,NNW,16.1,24.2,N/A,Snow,Light Snow,340,2014-01-02 03:35:00
9:55 PM,24.8,18.0,75,30.23,4.0,NNW,5.8,17.3,N/A,Snow,Light Snow,330,2014-01-02 03:55:00
10:15 PM,23.9,16.7,74,30.25,4.0,NW,4.6,20.7,N/A,Snow,Light Snow,320,2014-01-02 04:15:00
10:35 PM,22.5,15.3,74,30.26,5.0,NNW,10.4,23.0,N/A,Snow,Light Snow,340,2014-01-02 04:35:00
10:55 PM,21.9,14.9,74,30.28,3.0,Calm,Calm,-,N/A,Snow,Light Snow,0,2014-01-02 04:55:00
11:15 PM,21.7,14.5,74,30.28,4.0,North,6.9,16.1,N/A,Snow,Light Snow,350,2014-01-02 05:15:00
11:35 PM,21.4,14.9,76,30.29,4.0,NNW,3.5,-,N/A,Snow,Light Snow,330,2014-01-02 05:35:00
11:55 PM,20.5,13.3,74,30.30,5.0,NNW,8.1,20.7,N/A,Snow,Light Snow,330,2014-01-02 05:55:00